HRC MONOBLOCK CAMERA

Last updated on Wed Aug 26 2026 00:02:34 GMT+0000 (Coordinated Universal Time)

1 66052U 98067XR 26237.40050222 .00155787 00000+0 57523-3 0 9991 2 66052 51.6171 280.5166 0006532 24.9199 335.2120 15.87178178 48944
UTC large
Height (km)
Speed (km/s)
/
Latitude / Longitude
Inclination (degrees)
Orbital Period (minutes)
Azimuth
Elevation
Range (km)
Doppler Factor

Next 0 passes for location: London (51.5072 / 0.1276)

No passes found over London.
HRC MONOBLOCK CAMERA